Pascagoula, MS

9:13 AM CDT on September 20, 2017 (GMT -0500)
Lott International

Weather History for KPQL - April, 2013

Change the Weather History Date:

Wednesday, April 3, 2013

  Actual Average Record
Temperature  
Mean Temperature 60 °F -  
Max Temperature 66 °F 73 °F 86 °F (2006)
Min Temperature 55 °F 55 °F 36 °F (1987)
Degree Days  
Heating Degree Days 4    
Growing Degree Days 10 (Base 50)    
Moisture  
Dew Point 56 °F    
Average Humidity 89    
Maximum Humidity 100    
Minimum Humidity 75    
Precipitation  
Precipitation 2.25 in - - ()
Sea Level Pressure  
Sea Level Pressure 29.97 in    
Wind  
Wind Speed 8 mph (NNE)    
Max Wind Speed 32 mph    
Max Gust Speed 43 mph    
Visibility 6 miles    
Events Rain , Thunderstorm    
Averages and records for this station are not official NWS values.
T = Trace of Precipitation, MM = Missing Value Source: NWS Daily Summary

Daily Weather History Graph

Daily Weather History Graph

Search for Another Location

Airport or City:

Trip Planner

Search our weather history database for the weather conditions in past years. The results will help you decide how hot, cold, wet, or windy it might be!

Date:

Astronomy

Apr. 03, 2013 Rise Set
Actual Time 6:40 AM CDT 7:14 PM CDT
Civil Twilight 6:16 AM CDT 7:38 PM CDT
Nautical Twilight 5:47 AM CDT 8:07 PM CDT
Astronomical Twilight 5:18 AM CDT 8:36 PM CDT
Moon 1:54 AM CDT (4/3) 12:51 PM CDT (4/3)
Length of Visible Light 13h 22m
Length of Day
12h 33m
Last Quarter, 44% of the Moon is Illuminated
Apr 3
Last Quarter
Apr 10
New
Apr 18
First Quarter
Apr 25
Full
May 2
Last Quarter

Hourly Weather History & Observations

Time (CDT) Temp. Dew Point Humidity Pressure Visibility Wind Dir Wind Speed Gust Speed Precip Events Conditions
12:53 AM 64.0 °F 59.0 °F 84% 29.99 in 10.0 mi East 4.6 mph - N/A   Mostly Cloudy
1:53 AM 64.9 °F 60.1 °F 84% 29.99 in 10.0 mi ENE 3.5 mph - N/A   Overcast
2:53 AM 64.9 °F 60.1 °F 84% 29.96 in 10.0 mi ESE 3.5 mph - 0.00 in Rain Light Rain
3:53 AM 63.0 °F 61.0 °F 93% 29.95 in 6.0 mi Calm Calm - 0.05 in Rain Light Rain
4:14 AM 62.6 °F 60.8 °F 94% 29.94 in 4.0 mi NNE 5.8 mph - 0.06 in Rain , Thunderstorm Rain
4:46 AM 62.6 °F 60.8 °F 94% 29.96 in 5.0 mi NNW 5.8 mph - 0.15 in Rain Rain
4:53 AM 62.1 °F 59.0 °F 90% 29.97 in 4.0 mi North 6.9 mph - 0.17 in Rain Heavy Rain
5:01 AM 60.8 °F 59.0 °F 94% 29.97 in 1.8 mi North 10.4 mph - 0.17 in Rain Heavy Rain
5:11 AM 60.8 °F 57.2 °F 88% 29.96 in 2.0 mi North 10.4 mph - 0.28 in Rain Heavy Rain
5:20 AM 60.8 °F 57.2 °F 88% 29.96 in 5.0 mi NNE 12.7 mph - 0.29 in Rain Rain
5:36 AM 60.8 °F 59.0 °F 94% 29.98 in 1.8 mi NNE 4.6 mph - 0.47 in Rain Heavy Rain
5:53 AM 60.1 °F 59.0 °F 96% 30.00 in 1.2 mi NW 3.5 mph - 0.72 in Rain Heavy Rain
6:06 AM 60.8 °F 57.2 °F 88% 29.99 in 3.0 mi North 5.8 mph - 0.10 in Rain Heavy Rain
6:35 AM 60.8 °F 57.2 °F 88% 29.99 in 3.0 mi NNE 9.2 mph - 0.18 in Rain Rain
6:49 AM 59.0 °F 57.2 °F 94% 29.99 in 3.0 mi NNE 9.2 mph - 0.19 in Rain Light Rain
6:53 AM 59.0 °F 57.0 °F 93% 30.00 in 3.0 mi NNE 9.2 mph - 0.20 in Rain Light Rain
7:44 AM 57.2 °F 55.4 °F 94% 30.00 in 2.5 mi NE 10.4 mph - 0.11 in Rain Heavy Rain
7:53 AM 57.9 °F 55.0 °F 90% 30.00 in 4.0 mi NE 10.4 mph - 0.12 in Rain Rain
8:53 AM 57.0 °F 54.0 °F 89% 29.99 in 6.0 mi NE 10.4 mph - 0.06 in Rain Light Rain
9:53 AM 57.0 °F 54.0 °F 89% 30.03 in 3.0 mi NNE 5.8 mph - 0.17 in Rain Heavy Rain
10:06 AM 57.2 °F 53.6 °F 88% 30.02 in 2.5 mi NE 6.9 mph - 0.06 in Rain Rain
10:13 AM 55.4 °F 53.6 °F 94% 30.02 in 3.0 mi NE 11.5 mph - 0.09 in Rain Heavy Rain
10:46 AM 55.4 °F 55.4 °F 100% 30.06 in 2.5 mi North 8.1 mph - 0.23 in Rain , Thunderstorm Heavy Thunderstorms and Rain
10:51 AM 55.4 °F 53.6 °F 94% 30.06 in 2.5 mi North 8.1 mph - 0.26 in Rain , Thunderstorm Heavy Thunderstorms and Rain
10:53 AM 55.9 °F 54.0 °F 93% 30.06 in 2.5 mi NNE 9.2 mph - 0.27 in Rain , Thunderstorm Heavy Thunderstorms and Rain
11:00 AM 55.4 °F 53.6 °F 94% 30.06 in 2.5 mi NNE 9.2 mph - 0.03 in Rain , Thunderstorm Heavy Rain
11:12 AM 55.4 °F 53.6 °F 94% 30.07 in 2.5 mi North 8.1 mph - 0.10 in Rain , Thunderstorm Heavy Rain
11:15 AM 55.4 °F 53.6 °F 94% 30.07 in 2.5 mi North 10.4 mph - 0.11 in Rain Heavy Rain
11:36 AM 55.4 °F 53.6 °F 94% 30.06 in 3.0 mi NNE 10.4 mph - 0.20 in Rain Heavy Rain
11:49 AM 55.4 °F 55.4 °F 100% 30.07 in 2.5 mi NNE 6.9 mph - 0.25 in Rain , Thunderstorm Heavy Rain
11:53 AM 55.9 °F 54.0 °F 93% 30.08 in 2.5 mi NE 5.8 mph - 0.26 in Rain , Thunderstorm Heavy Rain
12:05 PM 55.4 °F 55.4 °F 100% 30.08 in 2.5 mi Calm Calm - 0.05 in Rain , Thunderstorm Heavy Rain
12:40 PM 55.4 °F 53.6 °F 94% 29.95 in 2.0 mi ESE 24.2 mph 31.1 mph 0.19 in Rain Heavy Rain
12:53 PM 55.9 °F 54.0 °F 93% 29.81 in 2.5 mi ESE 31.1 mph 41.4 mph 0.23 in Rain Heavy Rain
12:57 PM 55.4 °F 53.6 °F 94% 29.80 in 3.0 mi ESE 32.2 mph 42.6 mph 0.00 in Rain Rain
1:53 PM 62.1 °F 57.9 °F 86% 29.79 in 10.0 mi ESE 20.7 mph 34.5 mph 0.00 in Rain Light Rain
2:15 PM 64.4 °F 57.2 °F 77% 29.83 in 10.0 mi NE 11.5 mph - N/A   Clear
2:42 PM 64.4 °F 59.0 °F 83% 29.85 in 10.0 mi ENE 4.6 mph - N/A   Mostly Cloudy
2:53 PM 64.9 °F 59.0 °F 81% 29.87 in 10.0 mi ENE 8.1 mph - N/A   Mostly Cloudy
3:53 PM 64.9 °F 57.9 °F 78% 29.86 in 10.0 mi ENE 6.9 mph - N/A   Overcast
4:53 PM 66.0 °F 57.9 °F 75% 29.86 in 10.0 mi ENE 9.2 mph - N/A   Overcast
5:53 PM 62.1 °F 57.0 °F 84% 29.89 in 10.0 mi North 15.0 mph - N/A   Overcast
6:53 PM 60.1 °F 55.9 °F 86% 29.92 in 10.0 mi North 10.4 mph - N/A   Overcast
7:53 PM 59.0 °F 54.0 °F 83% 29.95 in 10.0 mi North 10.4 mph - N/A   Overcast
8:53 PM 57.9 °F 53.1 °F 84% 29.96 in 10.0 mi NNE 15.0 mph 20.7 mph N/A   Overcast
9:18 PM 57.2 °F 51.8 °F 82% 29.96 in 10.0 mi NNE 12.7 mph 19.6 mph N/A   Overcast
9:53 PM 57.0 °F 51.1 °F 81% 29.97 in 10.0 mi NE 10.4 mph - N/A   Mostly Cloudy
10:53 PM 55.9 °F 51.1 °F 84% 29.99 in 10.0 mi North 5.8 mph - N/A   Overcast
11:02 PM 55.4 °F 51.8 °F 88% 29.98 in 10.0 mi North 6.9 mph - N/A   Overcast
11:53 PM 55.0 °F 50.0 °F 83% 29.97 in 10.0 mi NNE 6.9 mph - N/A   Overcast